Weather History for Bogota, Colombia

Change the Weather History Date:

Tuesday, July 9, 2013

  Actual Average Record
Temperature  
Mean Temperature 56 °F -  
Max Temperature 65 °F 63 °F 69 °F (2002)
Min Temperature 48 °F 46 °F 42 °F (1996)
Degree Days  
Heating Degree Days 8    
Growing Degree Days 6 (Base 50)    
Moisture  
Dew Point 47 °F    
Average Humidity 75    
Maximum Humidity 94    
Minimum Humidity 35    
Precipitation  
Precipitation 0.16 in 0.06 in - ()
Sea Level Pressure  
Sea Level Pressure 30.35 in    
Wind  
Wind Speed 6 mph ()    
Max Wind Speed 18 mph    
Max Gust Speed -    
Visibility 6.9 miles    
Events Rain    
Averages and records for this station are not official NWS values.
T = Trace of Precipitation, MM = Missing Value Source: Averaged Metar Reports

Daily Weather History Graph

Daily Weather History Graph

Search for Another Location

Airport:

Trip Planner

Search our weather history database for the weather conditions in past years. The results will help you decide how hot, cold, wet, or windy it might be!

Date:

Astronomy

Jul. 09, 2013 Rise Set
Actual Time 5:50 AM COT 6:13 PM COT
Civil Twilight 5:28 AM COT 6:35 PM COT
Nautical Twilight 5:01 AM COT 7:01 PM COT
Astronomical Twilight 4:35 AM COT 7:28 PM COT
Moon 6:47 AM COT (7/9) 7:19 PM COT (7/9)
Length of Visible Light 13h 07m
Length of Day
12h 22m
New Moon, 2% of the Moon is Illuminated
Jul 9
New Moon
Jul 15
First Quarter
Jul 22
Full
Jul 29
Last Quarter
Aug 6
New

Hourly Weather History & Observations

Time (COT) Temp. Dew Point Humidity Pressure Visibility Wind Dir Wind Speed Gust Speed Precip Events Conditions
12:00 AM 48.2 °F 42.8 °F 82% 30.40 in 6.2 mi North 3.5 mph - N/A   Scattered Clouds
1:00 AM 50 °F 44 °F 73%  in 9 mi NNW 4.5 mph - -   Haze
1:00 AM 50.0 °F 44.6 °F 82% 30.38 in 6.2 mi NNW 4.6 mph - N/A   Mostly Cloudy
2:00 AM 48.2 °F 44.6 °F 87% 30.35 in 6.2 mi NE 3.5 mph - N/A   Mostly Cloudy
3:00 AM 48.2 °F 44.6 °F 87% 30.35 in 6.2 mi Variable 2.3 mph - N/A   Mostly Cloudy
4:00 AM 49 °F 46 °F 83%  in 6 mi SSW 2.2 mph - - Rain Light Drizzle
4:00 AM 48.2 °F 46.4 °F 93% 30.34 in 6.2 mi Variable 2.3 mph - N/A   Drizzle
5:00 AM 50.0 °F 48.2 °F 94% 30.34 in 6.2 mi NE 6.9 mph - N/A   Light Drizzle
5:31 AM 50.0 °F 48.2 °F 94% 30.33 in 6.2 mi NNW 3.5 mph - N/A   Light Drizzle
6:00 AM 50.0 °F 48.2 °F 94% 30.34 in 6.2 mi NE 3.5 mph - N/A   Light Drizzle
7:00 AM 51 °F 49 °F 90%  in 9 mi East 2.2 mph - -   Haze
7:00 AM 51.8 °F 48.2 °F 88% 30.38 in 6.2 mi Variable 2.3 mph - N/A   Scattered Clouds
8:00 AM 55.4 °F 48.2 °F 77% 30.39 in 6.2 mi NNE 4.6 mph - N/A   Scattered Clouds
9:00 AM 57.2 °F 48.2 °F 72% 30.38 in 6.2 mi ESE 4.6 mph - N/A   Scattered Clouds
10:00 AM 60 °F 47 °F 51%  in 9 mi SSE 11.2 mph - -   Haze
10:00 AM 60.8 °F 46.4 °F 59% 30.39 in 6.2 mi SSE 10.4 mph - N/A   Scattered Clouds
11:00 AM 62.6 °F 44.6 °F 52% 30.38 in 6.2 mi ESE 15.0 mph - N/A   Scattered Clouds
12:00 PM 62.6 °F 44.6 °F 52% 30.38 in 6.2 mi South 13.8 mph - N/A   Scattered Clouds
1:00 PM 65 °F 44 °F 35%  in 11 mi South 11.2 mph - -   Haze
1:00 PM 64.4 °F 44.6 °F 49% 30.35 in 6.2 mi South 11.5 mph - N/A   Scattered Clouds
2:00 PM 66.2 °F 46.4 °F 49% 30.32 in 6.2 mi South 18.4 mph - N/A   Scattered Clouds
3:00 PM 64.4 °F 44.6 °F 49% 30.31 in 6.2 mi SE 17.3 mph - N/A   Scattered Clouds
4:00 PM 60 °F 46 °F 50%  in 8 mi SE 13.4 mph - - Rain Light Drizzle
4:00 PM 60.8 °F 46.4 °F 59% 30.31 in 6.2 mi SE 13.8 mph - N/A   Light Drizzle
5:00 PM 55.4 °F 50.0 °F 82% 30.33 in 6.2 mi SE 11.5 mph - N/A   Light Drizzle
6:00 PM 53.6 °F 50.0 °F 88% 30.32 in 6.2 mi ENE 8.1 mph - N/A   Light Drizzle
7:00 PM 51 °F 48 °F 84%  in 10 mi NE 4.5 mph - -   Haze
7:00 PM 51.8 °F 48.2 °F 88% 30.33 in 6.2 mi NE 4.6 mph - N/A   Scattered Clouds
8:00 PM 51.8 °F 48.2 °F 88% 30.35 in 6.2 mi ENE 9.2 mph - N/A   Scattered Clouds
9:00 PM 51.8 °F 46.4 °F 82% 30.36 in 6.2 mi NNW 3.5 mph - N/A   Scattered Clouds
10:00 PM - 46 °F %  in 11 mi 219.3 mph - -   Haze
10:00 PM 50.0 °F 46.4 °F 87% 30.37 in 6.2 mi NE 9.2 mph - N/A   Scattered Clouds
11:00 PM 48.2 °F 46.4 °F 93% 30.37 in 6.2 mi Variable 2.3 mph - N/A   Scattered Clouds